ATLAS 5 CENTAUR DEB, 44656

Orbit data source: Space-Track

ATLAS 5 CENTAUR DEB, 44656 is space debris in HEO originally from a launch on Wed, 17 Oct 2018 UTC launched from the Air Force Eastern Test Range (AFETR). Debris objects in space refer to the collection of defunct objects orbiting the Earth. Examples of debris include non-operational satellites, rocket bodies, and fragments generated from explosions, collisions, or faulty payload assembly.

Loading next visibility...
ATLAS 5 CENTAUR DEB details
Identifier
44656, 2018-079S
Orbit
HEO
Last TLE update1 month ago
Origin
Flag of USULA (US)
ManufacturerULA Decatur
MissionSpacecraft
Bus & MotorUnknown
MassUnknown
Launch date (UTC)
2018-10-17 (6 years ago)
Launch vehicleUnknown
Launch site
Air Force Eastern Test Range (AFETR)
Object type
Payload
Rocket body
Debris
Shape & HBRUnknown
Radar Cross SectionRCS unknown

Expand to show TLE details & history

TLE from 1 month ago
0 ATLAS 5 CENTAUR DEB
1 44656U 18079S   24321.27275645 -.00000101  00000-0  00000-0 0  9993
2 44656  13.1240  75.8323 4665384 228.0306  81.5233  1.83294464 37185
Epoch: 2024-11-16T06:32Z
Definitive object data (Epoch: 2024-11-16T06:32:46.157Z)
Latitude
Longitude-78.30167°
Altitude25,696.838 km
Speed3.274 km/s
True Right ascension05h 02m 52s
True Declination0° 00' 00"
Sunlit
Object was in daylight at TLE epoch
Visualization TLE readout
Latitude9.59735°
Longitude-34.45775°
Altitude34,796.989 km
Speed2.287 km/s
Apparent Right ascension08h 23m 41s
Apparent Declination4° 09' 02"
Sunlit
Object is in daylight
Visualization observer readout
Local Sidereal Time03:57:10
Azimuth102.226° ESE
Elevation20.482°
Doppler factor1
Orbital elements
Apogee altitude34,986.388 km
Perigee altitude8,668.442 km
Semi-major axis28,205.552 km
Eccentricity0.4665384
Inclination13.124°
RAAN75.8323°
Arg. of periapsis228.0306°
True anomaly131.95773°
Mean anomaly81.5233°
Eccentric anomaly107.07564°
Mean motion0.45819 °/min
BSTARUnknown
Orbital period785.71 mins
Loading maneuver chart data...

ATLAS 5 CENTAUR DEB Visibility forecast

Observer location: undefined°, undefined

Span
Click to sort rows by Start time (UTC) header in descending order
Start Az.
Max El. time (UTC)
Max El. Az.
Max El.
End time (UTC)
End Az.
318 mins2024-12-14 05:24:08.082Z102.242° ESE2024-12-14 08:19:08.082Z105.424° ESE25.569°2024-12-14 10:42:08.082Z98.218° ESE
200 mins2024-12-15 02:04:08.082Z205.591° SW2024-12-15 05:24:08.082Z132.389° SE30.442°2024-12-15 05:24:08.082Z132.389° SE
|